Wind_Speed
15 15 15 15 15 14 13 13 12 12 12 12 12 12 12 12 12 12 12 12 12 12 12 12 13 13 13 13 13 12 12 12 11 11 11 11 10 10 10 9 9 9 8 8 7 7 6 6 6 6 6 6 6 6 6 6 6 8 8 8 9 9 9 10 9 9 10 11 11 10 10 10 10 11 11 11 11 11 11 11 11 10 10 10 10
17 16 16 16 16 15 14 14 13 13 13 13 13 13 13 12 12 13 13 13 13 13 13 12 13 13 13 13 13 13 13 13 12 12 12 12 11 11 11 10 10 10 9 9 8 7 7 7 6 6 5 5 6 6 6 5 5 6 7 7 7 8 8 8 8 8 8 8 9 9 9 10 10 10 11 11 12 12 12 12 12 11 11 12 12
20 19 18 18 17 16 15 15 15 14 14 14 14 14 14 14 14 14 14 14 14 14 14 14 14 14 14 13 13 13 12 12 13 13 13 13 12 12 11 11 10 10 10 9 8 8 8 8 7 7 6 6 6 6 6 6 6 6 7 7 7 8 8 9 9 9 9 8 8 8 9 9 10 10 11 11 12 13 14 14 14 13 13 13 14
21 21 20 20 19 18 17 16 15 15 15 15 15 16 16 15 15 15 15 15 15 15 15 15 15 15 14 14 14 13 13 13 13 13 13 13 13 13 12 12 11 10 9 9 9 9 9 9 8 8 8 8 8 8 8 8 8 8 8 9 9 9 10 10 11 11 11 10 9 9 10 10 10 10 11 12 12 13 14 15 16 16 15 15 15
21 22 22 22 21 20 19 18 17 16 16 16 16 17 17 16 16 16 16 16 15 15 16 16 15 15 15 15 14 14 14 14 14 14 14 14 13 13 12 12 11 11 10 10 10 9 9 9 9 9 10 10 10 10 10 10 10 10 11 11 11 11 11 11 11 12 13 13 12 12 12 12 12 12 12 12 13 14 15 16 16 17 17 16 15
22 22 22 22 23 22 21 20 19 18 18 17 17 17 17 17 17 16 16 16 16 16 15 15 15 15 15 15 15 15 14 14 14 14 14 14 13 12 12 12 12 11 11 10 10 10 10 10 10 11 11 11 11 12 12 12 11 11 12 13 13 12 12 11 12 13 14 14 14 14 14 13 13 13 13 13 14 15 15 16 16 17 18 17 15
23 22 22 23 23 23 22 21 21 20 20 19 18 18 18 17 18 17 17 17 16 16 16 15 15 14 14 14 14 14 14 14 14 13 13 13 13 12 12 12 12 12 12 11 11 10 10 11 11 12 12 12 12 13 13 13 13 12 13 14 14 13 13 13 13 14 14 14 14 14 14 13 13 13 13 13 14 15 16 16 17 17 17 16 14
23 23 23 23 22 22 21 21 21 21 20 20 19 19 18 18 18 18 18 17 17 17 16 16 15 14 14 14 13 13 13 13 14 14 13 14 14 13 13 13 13 13 13 12 12 11 11 12 12 13 14 14 13 14 14 14 15 14 14 15 15 15 15 15 15 14 15 15 15 15 14 14 14 13 13 13 13 14 15 16 17 17 16 14 12
24 23 23 22 21 21 20 21 21 20 19 19 19 18 18 18 18 18 18 18 18 18 18 17 16 15 15 14 14 14 14 14 15 15 15 15 14 14 15 15 14 14 14 14 14 13 13 13 14 15 15 16 16 15 16 16 16 16 16 16 17 17 16 16 16 16 16 16 16 16 15 14 14 14 14 13 14 14 15 15 16 17 17 16 13
25 24 22 22 21 21 21 22 22 21 20 20 20 20 20 19 19 19 20 19 19 19 19 18 17 17 17 16 16 15 15 16 17 17 16 16 16 17 17 17 16 15 15 16 16 15 15 15 16 17 18 18 18 17 17 18 17 17 18 18 18 18 18 18 18 18 19 18 18 18 17 16 15 15 15 14 14 14 15 15 15 16 17 18 17
24 22 22 23 23 23 24 24 24 24 23 23 22 22 22 21 21 21 21 21 20 20 19 19 19 19 18 18 17 17 18 19 19 19 19 19 19 19 19 19 18 17 16 16 17 17 17 18 19 20 20 20 20 19 19 19 19 19 19 19 19 18 19 19 20 20 21 21 20 19 19 18 17 16 16 16 15 15 15 15 16 16 17 18 19
25 24 24 25 25 26 27 27 27 27 26 25 25 25 24 24 23 24 25 24 23 22 21 20 20 20 19 19 20 21 22 22 21 21 22 22 22 22 21 20 19 18 18 18 19 19 19 20 21 22 23 23 22 22 22 21 21 21 21 21 21 20 20 21 21 22 23 23 22 21 20 20 20 19 19 18 17 17 17 16 16 17 17 18 19
28 28 28 27 28 28 29 29 29 28 27 27 27 27 26 26 26 26 27 27 25 24 23 23 22 21 21 21 22 23 23 22 22 23 23 23 24 24 23 22 20 20 21 21 21 21 21 22 23 23 24 25 25 25 25 24 24 24 23 23 23 23 23 23 24 24 24 24 23 22 22 22 22 22 21 21 20 19 18 18 17 18 18 19 19
31 32 31 30 30 29 29 30 29 28 28 27 27 27 27 27 27 27 27 27 26 25 25 25 24 24 23 23 23 24 24 23 23 24 24 24 24 23 23 23 22 22 23 24 24 24 24 24 25 25 26 27 27 27 27 27 27 26 26 25 24 24 24 25 25 25 25 24 24 24 23 23 22 22 22 22 21 21 20 20 20 20 20 21 21
32 33 32 31 30 30 30 30 29 28 27 27 27 28 28 27 26 27 28 28 27 27 27 26 26 25 25 25 25 26 26 26 26 26 26 26 25 24 23 24 24 23 25 26 26 26 26 27 27 27 28 28 29 29 29 30 30 30 29 28 27 26 26 26 26 26 25 25 25 24 24 23 23 22 22 22 22 22 21 21 21 21 22 23 24
35 35 34 32 31 31 30 29 29 28 29 29 29 30 29 28 27 27 28 29 29 28 28 27 27 26 25 26 26 26 27 27 27 26 27 27 26 24 23 24 24 25 25 26 26 27 28 29 29 30 30 30 31 30 31 31 32 32 31 30 29 28 28 27 26 26 26 26 25 25 24 23 23 23 23 24 24 23 23 22 22 22 22 24 25
37 36 34 33 33 32 31 31 30 30 31 31 32 32 30 28 27 27 27 28 30 30 29 28 27 27 27 27 27 27 27 27 28 27 27 27 26 25 24 24 24 25 25 26 27 28 29 30 31 32 32 32 32 32 32 32 32 33 32 32 30 30 29 28 27 26 26 26 26 25 25 25 25 25 26 27 27 26 26 25 25 24 24 25 26
35 35 34 33 31 29 28 30 30 31 32 33 32 30 28 27 27 27 26 26 29 31 31 29 28 28 28 28 28 28 28 28 29 30 29 29 28 26 26 26 26 27 27 28 29 30 31 33 34 35 35 35 35 34 34 33 33 33 33 32 31 30 29 29 29 27 27 26 26 26 26 26 26 27 28 29 29 28 28 27 26 26 25 26 27
32 34 34 31 29 28 27 29 30 31 31 29 27 27 27 28 29 29 27 25 25 27 28 27 28 28 28 29 30 30 31 31 32 32 31 30 28 28 28 29 30 30 30 30 30 30 32 33 34 35 35 36 36 37 36 36 35 34 33 33 32 31 30 30 30 29 27 27 27 27 27 26 27 28 29 30 29 29 29 28 28 27 27 28 28
32 34 34 30 28 30 30 30 31 33 31 26 24 26 27 27 28 27 25 23 22 22 23 23 24 24 25 26 27 29 30 30 31 32 31 30 29 29 30 31 31 31 32 32 31 31 32 34 35 35 35 34 35 37 38 38 37 36 34 33 33 32 31 31 30 30 29 28 28 29 29 28 28 28 29 30 29 28 28 28 28 29 30 30 29
30 31 34 32 30 31 32 31 31 33 32 28 26 26 25 25 26 25 22 21 21 22 22 23 23 23 22 23 23 24 25 27 28 29 30 30 30 30 31 32 33 33 32 32 33 34 35 36 37 38 37 36 36 37 38 39 38 37 36 35 34 34 33 32 31 30 30 31 31 32 31 31 30 30 31 31 30 29 29 29 29 30 30 30 30
33 29 30 31 31 32 32 33 33 33 31 29 27 27 26 27 27 26 24 23 23 24 25 25 25 25 24 23 23 22 23 24 25 27 28 28 29 30 31 32 33 33 31 31 33 35 35 36 37 38 38 37 37 36 37 38 38 38 37 36 36 35 34 34 33 33 33 33 34 34 33 32 32 33 32 30 29 28 27 27 27 27 26 26 26
38 33 28 27 29 30 30 31 32 31 30 28 26 25 26 27 27 26 25 24 23 25 26 26 25 25 24 23 22 22 22 23 24 25 26 27 29 30 31 31 31 32 32 30 29 29 29 29 32 34 35 35 36 35 35 37 38 38 37 37 37 38 38 38 38 37 36 36 36 35 33 32 32 31 29 27 25 25 24 23 24 24 23 23 23
35 35 32 28 28 29 29 29 30 30 30 30 29 26 25 25 26 26 26 26 26 27 29 27 27 27 25 24 23 23 25 26 26 27 28 29 28 28 29 29 30 30 29 26 24 24 24 23 25 30 31 30 32 33 33 35 36 37 36 35 35 36 36 35 35 34 35 35 34 32 31 30 29 27 26 25 25 25 25 24 24 25 24 24 24
32 34 35 32 29 29 30 30 30 30 30 31 31 30 29 29 29 29 29 30 30 32 31 28 28 29 28 28 28 28 29 31 31 31 32 31 29 27 26 28 29 28 27 26 24 25 25 23 25 30 31 29 28 29 31 32 32 32 31 30 30 32 32 32 32 32 32 31 29 27 27 27 26 25 25 25 26 26 26 26 26 26 26 26 26
36 36 36 35 33 33 33 33 32 31 30 30 31 31 32 32 32 32 32 31 31 32 30 28 28 30 30 30 31 30 30 31 31 31 31 31 31 29 28 29 29 26 27 28 27 27 27 27 27 30 31 28 26 26 28 29 28 27 27 27 29 31 32 32 31 31 29 27 25 25 25 25 24 24 25 26 26 27 27 27 28 28 28 28 29
42 42 41 39 36 35 35 35 35 34 34 34 33 33 34 34 34 34 34 33 31 31 29 29 30 31 32 33 32 32 32 32 32 32 33 33 32 31 30 31 30 28 29 31 30 28 28 29 29 30 29 27 25 24 25 25 24 23 24 25 26 27 27 26 25 25 25 24 24 24 25 25 25 26 27 27 28 28 29 30 30 31 31 31 32
42 43 43 41 39 38 38 39 39 38 38 38 38 38 37 37 36 36 37 37 36 34 32 31 31 32 33 34 34 33 34 34 35 35 36 35 34 33 32 32 33 33 34 35 34 32 29 29 30 30 27 25 24 24 23 22 21 22 23 23 23 23 23 22 22 23 24 24 25 26 27 28 28 29 30 30 31 31 31 32 33 33 34 34 35
40 42 43 43 42 42 42 43 43 43 42 41 42 42 41 41 40 39 39 40 40 39 37 36 35 34 35 35 35 35 36 37 38 38 38 37 36 35 35 34 34 35 35 34 33 32 30 30 29 27 24 23 23 22 21 21 22 24 24 24 24 24 25 25 25 26 26 27 28 29 30 31 32 33 34 34 34 35 35 36 37 37 37 37 38
41 42 44 45 45 46 46 46 46 46 45 45 45 45 45 44 44 43 42 42 42 42 41 40 39 38 38 37 37 39 39 40 39 38 37 37 36 35 35 34 34 33 32 31 31 30 30 30 29 28 26 26 25 25 25 25 26 26 25 25 26 27 28 28 28 28 29 30 32 33 34 35 36 37 37 38 38 39 40 40 40 41 40 40 40
44 44 45 46 47 47 47 48 48 48 48 47 47 47 47 46 46 46 45 44 44 44 44 43 42 41 40 38 38 39 41 41 41 39 37 36 35 34 33 33 32 31 30 30 30 30 31 32 32 32 32 31 30 30 29 27 27 27 27 29 30 32 32 32 31 31 32 33 34 36 37 38 39 40 40 41 41 42 42 42 42 42 42 42 42
44 45 45 46 47 48 48 48 49 49 49 49 49 49 49 48 48 48 47 46 46 45 45 45 43 43 42 40 38 38 38 37 37 38 37 34 34 33 32 32 33 33 32 32 32 32 32 33 33 33 33 33 32 32 31 30 31 32 33 34 34 34 34 34 34 34 35 35 36 37 38 39 40 41 42 43 43 43 44 44 44 44 44 44 45
45 44 44 45 46 47 47 48 48 48 49 49 49 50 50 50 49 48 48 47 47 47 47 46 45 44 44 43 41 39 38 35 33 33 33 33 33 33 33 34 36 36 36 35 34 33 33 33 34 34 34 34 34 34 34 35 36 36 36 35 34 33 33 34 35 36 37 38 38 39 40 41 42 43 44 45 45 46 46 47 47 48 48 48 49
47 46 45 44 44 44 45 46 47 47 47 47 47 48 49 50 49 49 48 47 47 47 46 45 44 43 45 45 44 43 43 41 38 37 36 37 38 38 38 38 39 38 37 36 35 35 35 35 35 36 36 35 36 36 37 37 37 37 36 36 35 35 36 36 37 38 39 39 40 41 42 43 44 45 46 47 48 49 50 50 51 51 52 52 52
49 48 48 47 46 46 45 46 46 47 47 47 47 47 48 48 49 48 48 46 46 46 46 44 43 42 42 43 44 44 44 44 43 42 42 42 42 42 41 41 39 38 38 37 37 37 37 36 37 37 37 37 38 38 39 39 39 39 39 39 40 40 41 41 41 42 42 43 44 45 46 46 47 47 48 49 50 50 51 52 53 53 54 54 54
49 48 48 48 48 48 48 47 46 46 46 46 47 47 48 47 47 47 46 45 44 45 45 45 46 46 45 43 44 45 45 44 43 42 42 41 41 41 41 41 40 40 39 39 38 38 38 38 38 38 39 40 40 41 42 42 43 43 43 44 44 45 45 46 46 46 47 47 48 49 49 50 50 50 50 50 51 51 51 52 53 53 54 54 54
48 48 48 48 48 49 49 49 48 46 45 44 45 46 46 46 45 45 44 43 43 43 44 45 46 48 48 47 46 46 46 46 45 45 44 43 42 42 42 42 42 42 42 42 41 41 41 41 41 42 43 43 44 44 45 45 46 46 47 47 47 48 48 48 49 49 49 49 49 50 50 50 50 50 51 51 51 52 52 52 53 53 54 54 55
48 48 48 48 49 50 51 50 50 49 48 46 45 45 45 45 44 44 43 42 42 42 43 44 45 47 49 49 48 48 47 47 46 47 47 46 45 45 45 44 45 44 44 44 44 44 44 44 45 45 46 46 46 47 47 48 48 48 49 49 50 50 50 50 50 50 50 50 49 50 50 50 51 51 52 52 52 53 53 54 54 55 55 56 56
49 49 49 48 48 50 51 51 51 51 50 50 49 47 46 45 44 43 42 42 42 42 43 45 45 46 48 49 49 49 49 48 48 48 49 48 48 48 47 47 47 47 46 46 46 46 47 47 48 48 48 48 48 49 49 49 49 50 50 51 52 52 52 52 51 50 50 50 51 51 52 52 53 53 53 54 54 54 54 54 54 54 55 56 56
48 49 49 48 48 48 49 49 50 50 50 50 51 51 50 49 47 45 43 42 41 41 43 47 49 48 48 49 49 49 49 49 49 50 50 51 51 50 50 49 49 49 49 49 49 50 50 50 50 50 50 50 50 49 50 50 51 51 52 52 52 52 52 52 52 52 52 53 53 54 54 54 54 54 54 54 54 54 54 54 55 55 56 57 58
47 48 48 48 48 48 48 48 48 48 47 47 48 49 50 50 51 49 47 46 44 42 42 46 49 49 48 48 50 51 52 52 52 53 54 55 54 54 53 52 51 51 50 50 51 51 51 51 50 50 50 50 50 50 51 51 52 52 52 52 52 52 52 52 53 54 54 54 54 54 54 54 54 54 54 54 55 55 56 56 57 58 59 59 60
47 47 46 46 46 47 47 47 47 47 46 45 45 44 45 47 49 50 50 49 48 45 43 45 47 49 49 48 49 51 54 55 55 56 55 55 54 55 55 55 54 53 52 51 50 50 50 50 50 50 50 51 51 51 52 51 51 51 51 51 52 52 53 54 54 54 54 54 54 54 54 54 54 54 55 55 56 57 58 58 59 60 60 60 61
46 46 45 45 44 43 43 44 45 46 45 45 43 42 42 42 43 45 47 48 48 46 45 45 46 47 48 47 45 45 48 52 55 57 55 53 53 54 55 56 55 54 52 51 51 51 51 50 50 51 51 51 52 52 51 51 52 52 52 52 53 53 53 53 53 53 53 53 53 54 54 55 55 56 56 57 57 58 59 59 59 60 61 61 62
45 46 46 45 45 43 41 41 41 42 43 42 41 40 40 40 41 42 44 46 46 47 47 47 48 48 47 46 44 43 43 46 51 54 54 53 53 53 53 53 53 52 52 52 51 51 51 50 50 51 51 51 52 52 52 53 53 53 53 52 52 52 52 53 53 53 53 53 54 54 55 55 56 57 57 58 58 59 59 60 60 61 63 64 65
43 44 44 44 45 45 43 41 40 39 40 39 39 38 39 40 40 41 42 44 46 47 48 48 48 48 48 47 47 47 47 47 49 50 51 51 51 51 50 50 51 51 52 52 52 51 51 51 51 51 51 52 52 52 53 53 53 52 52 52 52 52 53 53 53 53 53 54 54 55 56 56 57 57 58 58 59 60 61 62 63 64 66 67 68
41 42 43 44 44 45 45 43 42 40 39 39 38 38 39 39 40 40 41 42 45 47 48 47 47 46 45 45 45 46 47 48 48 48 48 49 50 50 50 51 51 52 52 52 51 51 51 51 51 52 51 51 51 51 52 52 52 51 51 52 52 52 53 53 53 54 54 55 56 56 57 57 58 58 59 60 61 62 64 65 66 67 68 69 70
39 40 42 43 44 45 44 43 41 41 40 40 40 39 39 39 40 40 40 40 41 43 45 47 48 48 47 45 44 43 43 43 44 45 46 47 48 49 50 50 51 51 52 52 51 51 51 51 51 51 50 50 50 50 51 51 51 51 51 51 52 52 53 54 54 55 55 56 56 57 58 58 59 60 61 62 63 64 66 66 67 68 69 69 69
37 38 40 42 43 43 43 41 40 39 40 40 39 38 37 38 39 39 39 39 39 39 40 42 44 46 48 48 47 45 43 42 42 42 43 44 46 49 51 52 52 52 52 52 51 51 50 50 50 50 50 50 50 50 50 50 50 51 51 52 52 53 53 54 55 55 56 57 57 58 59 60 61 62 62 63 64 65 65 66 66 67 68 68 68
37 37 39 40 42 43 43 42 42 41 41 39 37 36 37 37 37 37 36 36 36 36 37 38 39 40 43 45 46 46 46 45 44 44 43 43 45 48 50 51 52 51 51 50 50 49 49 49 49 49 49 49 50 50 50 50 50 51 51 52 52 53 54 54 55 56 57 58 59 60 61 61 62 62 62 63 63 64 64 65 65 66 67 68 69
40 39 39 40 41 42 43 44 45 45 45 44 42 40 39 38 37 38 39 38 37 36 36 36 36 37 38 40 41 43 44 45 45 45 45 45 45 46 47 47 48 48 48 48 49 48 48 48 49 49 49 49 49 50 50 50 50 51 51 52 53 53 54 55 56 57 58 59 59 60 60 61 61 61 61 61 62 62 63 64 65 66 68 69 70
41 42 41 41 41 41 42 44 45 45 46 46 46 44 42 41 40 41 41 40 39 37 36 36 35 35 37 38 38 39 41 42 42 43 45 45 46 46 46 46 46 46 46 47 47 47 47 47 47 48 48 48 49 49 49 50 50 51 52 53 54 54 55 56 56 57 57 58 58 58 58 58 58 59 59 60 62 63 64 65 67 68 69 70 71
Wind_Direction
199 199 199 197 196 194 193 194 193 191 191 192 191 193 193 194 197 197 196 195 195 194 194 193 192 192 191 191 192 195 198 203 208 213 218 224 230 234 240 246 251 256 262 266 266 266 268 269 268 268 268 267 269 269 267 264 264 268 273 277 279 279 278 280 284 286 291 295 299 300 299 300 302 302 304 309 315 321 323 322 327 334 337 337 337
202 202 202 202 201 200 197 195 196 196 194 194 192 193 195 199 202 204 204 203 202 202 203 203 204 204 204 203 204 205 208 211 215 219 224 231 236 240 245 251 255 259 264 269 269 268 267 268 269 270 272 274 276 278 280 281 281 281 282 285 287 289 291 292 295 299 302 304 304 305 307 311 315 313 312 316 320 323 321 321 326 330 330 328 329
205 207 208 207 206 204 201 199 199 200 199 198 197 194 195 200 203 205 207 208 208 208 209 210 212 213 213 213 214 216 218 220 223 227 230 234 238 242 247 252 255 261 266 273 278 282 283 281 281 282 282 284 285 288 292 293 294 293 292 292 292 294 298 302 305 307 310 312 311 311 312 315 317 316 314 314 316 314 312 314 319 322 322 320 321
207 208 212 213 213 210 208 204 201 202 202 201 201 200 199 200 201 204 206 208 210 210 212 214 216 217 219 220 221 223 225 227 230 232 235 238 241 244 248 251 255 260 266 271 277 284 288 289 289 289 290 291 291 292 295 297 299 299 297 296 295 294 296 300 303 306 309 313 314 313 312 311 310 308 306 306 306 304 304 307 310 310 310 312 315
210 210 212 215 216 215 213 210 207 207 207 205 204 204 205 205 204 206 207 209 211 212 213 215 217 219 221 222 224 226 229 231 234 237 240 243 246 247 250 254 258 262 267 271 274 278 282 286 286 288 289 290 292 293 293 294 295 296 296 297 297 296 296 296 298 300 302 305 307 306 306 306 306 305 303 302 301 299 300 302 302 300 302 307 313
214 212 212 215 217 217 215 214 212 212 213 212 210 208 208 209 210 211 211 212 213 214 215 217 218 220 222 224 226 228 232 235 238 241 246 249 251 251 254 257 261 265 267 270 273 276 280 283 286 289 290 291 294 296 294 291 290 292 295 296 297 297 296 294 294 295 296 298 301 302 304 306 308 308 308 306 304 303 302 300 298 299 303 308 313
218 215 213 215 217 217 216 216 215 216 217 218 218 216 214 214 216 218 219 219 218 219 220 221 222 223 225 226 228 231 235 239 243 246 249 254 256 256 257 261 264 266 267 268 271 275 280 285 288 289 290 291 293 292 290 288 289 292 295 296 297 298 298 298 298 298 298 299 301 304 308 311 312 312 312 312 310 309 307 305 304 306 308 313 317
222 219 217 216 217 217 216 218 218 219 220 222 223 223 223 223 224 226 227 227 227 227 228 228 228 230 230 231 233 236 239 242 244 245 248 251 256 257 259 262 265 268 269 269 271 275 280 284 287 287 288 288 287 286 286 287 290 293 294 296 299 301 301 303 304 303 302 302 303 305 309 312 312 312 314 315 314 312 310 310 312 314 316 319 322
224 221 221 220 218 217 217 219 221 221 221 223 225 225 227 229 231 233 234 234 234 236 237 236 236 236 237 238 241 242 243 245 246 247 249 251 254 256 258 261 264 267 271 272 274 276 279 282 283 282 281 281 282 283 285 287 290 292 292 295 299 303 305 306 306 304 302 302 304 306 308 310 311 312 314 314 312 310 310 312 314 316 318 318 320
224 224 224 224 222 219 220 221 223 223 222 221 223 223 224 226 228 232 236 235 236 239 241 240 241 241 242 245 247 247 248 250 251 252 254 254 255 256 257 260 262 263 266 271 274 276 277 278 278 276 275 276 279 281 284 286 288 290 292 294 298 301 303 304 303 301 300 301 304 306 307 310 310 310 310 309 309 309 310 312 312 313 314 313 315
223 225 226 226 225 223 223 224 225 226 225 225 226 226 226 226 225 229 233 233 234 237 238 239 239 239 241 246 249 249 249 250 251 252 254 255 256 257 257 258 259 262 264 267 269 271 272 272 273 273 273 275 277 278 279 281 284 287 290 291 293 295 298 299 300 300 300 301 303 305 306 308 308 306 305 306 307 308 308 309 309 308 308 309 310
222 223 223 224 225 226 226 227 228 229 231 232 233 233 234 234 232 233 235 235 234 234 236 238 237 236 235 237 240 242 242 243 247 250 253 255 257 258 258 259 260 264 266 265 265 266 266 268 270 272 273 274 274 274 275 275 277 280 283 285 288 291 293 295 297 298 298 300 301 303 303 303 303 302 302 303 304 305 305 305 304 304 304 304 303
223 223 221 221 223 226 228 230 231 232 233 235 237 237 238 239 240 240 242 242 241 240 240 241 242 242 240 239 241 243 243 242 245 248 251 254 256 257 259 260 260 261 263 263 263 263 263 265 267 270 272 273 274 275 275 275 275 276 279 282 285 288 290 292 293 294 295 298 299 298 298 299 299 299 300 301 302 302 302 302 302 301 301 299 297
224 225 223 223 224 226 229 232 233 234 234 236 238 240 240 241 243 245 247 248 247 246 246 245 245 246 246 246 247 249 250 249 248 249 251 253 255 257 261 262 261 261 263 264 265 266 266 266 267 269 271 272 274 275 276 277 277 278 279 280 281 283 286 288 289 291 293 295 294 293 295 297 298 298 299 301 302 301 301 301 301 300 299 298 297
225 226 225 226 227 229 232 234 236 237 239 240 242 242 242 242 243 246 249 249 247 245 245 246 246 248 249 249 250 251 253 253 253 253 254 255 256 258 259 262 264 265 266 267 269 270 271 271 270 270 270 271 272 273 274 276 277 277 278 280 281 282 282 282 284 286 288 290 289 290 292 294 295 297 298 300 299 298 298 298 298 297 296 296 295
226 227 225 225 227 230 233 235 236 238 240 242 243 244 244 243 243 245 248 250 250 246 243 242 243 245 246 248 250 251 253 254 255 255 256 257 259 259 258 259 263 264 265 266 269 270 271 272 272 272 271 271 271 271 271 273 275 276 278 279 281 281 281 281 282 282 283 284 286 287 288 290 292 294 296 296 296 295 295 294 293 293 294 293 293
230 231 229 228 229 231 234 236 236 237 240 242 243 244 245 245 244 245 247 250 251 248 244 242 243 243 243 244 246 247 250 253 254 255 256 258 260 260 259 258 260 261 263 265 268 269 270 270 270 270 270 270 270 271 271 271 272 274 276 278 279 279 281 282 282 281 280 281 283 284 285 288 291 294 295 295 295 294 292 291 291 292 292 291 290
227 231 232 230 229 231 235 238 237 237 239 240 241 243 245 246 246 247 250 252 251 248 246 247 249 248 246 244 244 244 247 250 253 256 257 258 259 260 260 260 261 262 264 265 267 269 270 270 270 269 268 268 268 269 270 271 272 273 274 276 277 278 279 280 281 281 281 281 281 281 283 286 290 293 294 293 291 288 287 287 289 290 290 289 289
225 228 230 230 229 228 232 236 235 234 236 239 242 245 247 247 247 247 249 250 249 247 246 248 250 251 250 248 247 247 247 249 252 255 257 259 260 262 264 265 265 266 266 266 265 267 269 272 274 275 275 273 271 269 268 268 269 271 273 274 276 277 277 278 279 280 280 281 281 281 281 283 287 290 291 288 285 283 283 283 283 284 285 287 289
230 229 230 232 231 228 228 232 234 235 238 240 242 246 248 245 242 244 247 248 247 246 245 245 248 249 251 252 252 253 253 253 253 254 256 259 262 265 267 269 269 269 270 271 271 271 270 270 270 271 273 275 275 274 271 267 266 267 270 272 273 274 275 276 277 278 278 279 280 281 281 282 284 287 287 284 283 283 282 281 280 280 281 284 286
230 232 232 234 235 231 229 232 233 235 238 240 240 244 246 243 243 246 249 250 250 250 250 251 252 252 253 254 254 255 256 256 255 254 256 259 262 265 267 268 269 270 271 273 276 276 275 273 271 270 269 268 271 274 274 271 266 264 266 269 272 273 273 274 275 275 277 278 279 280 281 281 282 284 284 283 284 284 284 283 282 281 281 283 285
229 234 235 234 235 234 232 233 235 236 240 243 244 244 245 247 249 252 253 255 258 258 258 258 259 259 258 256 255 254 254 254 254 254 256 260 262 264 266 266 267 270 272 272 272 273 276 277 276 273 270 266 264 268 273 273 269 265 263 266 269 271 272 273 274 274 275 278 281 281 281 280 280 282 284 284 284 284 285 286 287 287 287 287 287
231 238 241 237 236 237 236 236 238 240 243 247 248 248 250 252 252 252 254 259 262 261 258 259 260 261 259 256 255 254 252 252 253 253 257 260 261 263 264 265 266 268 268 267 266 270 277 281 278 277 276 270 264 263 268 272 272 268 266 265 265 268 272 274 274 273 273 276 279 280 281 280 280 282 284 284 284 284 286 288 291 292 294 294 292
236 242 245 242 240 240 240 240 243 247 250 251 252 252 252 251 250 251 256 260 260 257 255 255 254 254 255 257 257 256 256 257 256 256 258 259 259 260 262 264 264 262 259 257 261 269 275 272 270 277 282 277 268 263 263 268 271 270 269 266 265 267 270 272 273 273 271 272 274 276 276 277 279 281 283 284 285 286 288 290 292 293 294 294 292
240 241 242 243 245 245 245 247 250 254 255 254 253 254 253 253 253 255 258 259 259 256 253 250 249 250 254 258 259 258 257 258 258 257 257 255 255 254 255 259 262 259 254 253 259 268 269 258 257 271 281 281 274 266 261 263 266 266 265 264 263 264 265 267 270 271 271 271 272 272 273 275 278 281 283 285 286 288 289 291 292 292 293 292 291
243 243 244 248 250 250 250 252 253 254 254 253 252 252 253 254 254 254 255 256 257 256 254 250 249 252 256 259 258 255 253 252 253 254 254 253 252 249 247 252 256 254 254 256 260 266 269 261 259 269 277 278 274 267 260 258 258 257 255 255 255 257 260 263 266 268 269 269 270 271 273 276 278 280 281 283 285 287 288 289 289 289 290 290 289
249 249 250 251 251 250 252 253 253 253 253 253 252 251 250 250 249 250 253 254 254 255 256 256 255 256 256 255 254 253 252 251 252 253 254 253 252 249 246 246 245 244 250 257 263 269 270 265 262 267 273 275 272 266 259 256 254 252 250 251 252 255 259 262 265 265 265 266 268 270 273 276 278 279 279 281 282 283 284 285 286 286 286 286 286
252 252 252 251 250 249 250 250 250 250 250 252 254 254 253 252 250 249 250 252 253 254 257 259 258 256 255 254 255 255 255 255 257 257 256 255 253 250 247 245 244 246 251 258 265 268 264 260 261 266 270 271 268 262 257 252 249 249 251 252 255 259 263 266 266 265 264 265 267 269 272 274 275 277 277 278 280 281 282 282 283 283 284 284 285
253 251 250 250 250 250 250 250 248 247 247 248 250 253 255 255 254 252 250 251 253 253 255 257 257 255 255 256 258 258 256 257 258 257 254 252 251 250 249 248 248 251 255 259 263 261 257 256 260 264 264 262 259 257 255 253 253 255 254 253 254 259 264 268 269 267 266 266 267 269 271 272 273 273 275 276 277 279 280 281 282 283 284 285 286
256 253 250 249 249 249 250 250 250 250 248 247 248 249 251 253 254 254 253 252 252 252 254 255 255 255 255 257 260 260 257 255 255 253 250 249 249 250 251 252 252 253 254 256 256 256 256 257 258 257 257 256 256 258 260 261 261 260 256 254 257 263 267 269 268 267 267 268 269 270 271 271 272 272 273 274 275 276 277 278 279 281 283 285 286
256 255 253 250 250 249 249 250 251 251 251 251 250 250 250 251 252 253 254 253 253 253 254 254 254 255 255 256 259 260 257 255 253 249 246 246 248 249 250 251 251 252 253 254 255 255 256 257 256 256 257 258 260 263 264 264 262 260 259 260 264 268 270 269 268 267 268 268 269 270 270 271 272 273 274 275 276 277 278 279 280 281 283 284 285
251 252 252 251 251 251 250 250 250 250 251 251 251 252 251 251 251 251 252 253 253 254 255 255 255 254 254 254 255 255 254 255 252 246 243 243 244 246 247 248 250 252 253 255 256 257 257 257 257 257 258 260 262 263 264 264 263 263 264 266 267 268 268 267 267 268 268 268 269 270 271 272 274 275 276 277 279 280 282 283 284 284 285 285 285
247 249 250 250 250 250 251 251 251 251 251 251 251 252 253 253 252 252 251 251 251 252 254 255 256 256 254 253 251 250 251 255 254 248 245 245 246 247 249 252 254 256 256 256 256 256 256 256 257 258 260 262 263 264 264 265 265 266 267 267 267 267 267 267 267 268 268 269 270 271 272 273 274 276 278 279 281 283 284 285 285 286 286 285 285
248 249 250 251 251 251 251 252 252 253 253 253 253 253 253 253 253 253 252 251 250 250 251 252 254 256 255 252 250 250 251 254 256 255 253 253 254 255 257 257 256 256 256 256 256 255 255 255 257 259 260 261 262 263 264 265 265 266 267 268 268 268 268 268 269 270 272 273 273 274 274 275 276 278 279 280 281 282 283 284 284 284 285 285 285
251 250 250 251 253 253 253 253 253 253 253 254 254 253 252 252 253 253 252 251 250 250 250 249 248 250 252 251 250 250 251 253 255 256 255 254 255 256 257 257 256 256 255 255 254 254 254 255 257 258 259 261 262 263 264 266 267 268 269 270 271 271 272 273 274 275 275 276 277 277 278 279 280 280 281 281 281 282 282 282 282 283 283 283 283
253 252 251 250 252 253 254 254 254 253 253 253 253 252 251 250 250 250 250 250 250 250 250 248 245 244 248 250 250 249 249 250 252 253 253 253 253 253 253 254 255 254 253 253 253 253 254 255 256 258 259 260 262 263 265 267 268 269 270 271 272 273 274 274 275 276 277 277 278 279 280 280 281 282 282 282 282 281 281 281 281 282 282 282 282
252 252 251 250 249 249 250 251 252 252 252 252 252 251 249 248 247 246 246 247 249 249 250 249 247 245 245 247 249 249 248 249 250 252 253 254 254 253 253 253 252 252 252 252 253 254 255 256 257 258 260 261 263 265 266 267 269 270 271 272 272 273 274 275 276 276 277 278 279 279 280 280 281 281 281 281 282 282 282 282 282 282 282 283 283
251 251 251 250 249 248 248 249 249 250 249 250 250 250 250 248 247 245 245 247 249 249 249 249 248 247 247 247 247 248 249 250 251 251 252 252 252 252 252 251 250 250 250 251 253 254 255 256 257 259 260 262 264 265 267 269 270 271 272 273 274 275 276 277 278 278 279 279 280 280 280 280 280 281 281 281 281 281 281 281 282 282 282 283 283
250 251 251 251 250 249 249 249 250 250 250 250 250 250 251 250 249 248 249 251 252 254 254 252 249 249 249 249 248 248 249 250 251 251 250 250 249 249 249 249 249 249 250 251 252 253 254 256 258 260 261 263 265 266 268 269 271 272 273 274 275 276 277 278 278 279 279 280 280 280 280 280 280 281 281 281 281 280 280 280 280 280 281 281 282
250 250 251 252 252 252 252 252 252 252 252 251 252 252 252 251 250 249 251 252 254 257 259 256 253 251 251 250 250 250 250 250 250 250 250 249 248 246 246 246 247 248 250 251 252 254 255 257 259 261 263 264 265 266 268 269 270 272 273 273 274 275 276 277 277 278 278 279 279 279 279 280 280 280 280 280 280 280 280 280 280 280 280 280 281
251 251 252 253 254 254 254 254 254 255 254 254 254 254 254 254 252 251 251 253 254 257 258 256 253 251 250 249 249 249 249 248 248 247 247 247 246 246 246 246 247 248 250 251 253 255 256 258 259 261 262 263 265 266 267 269 270 271 271 272 273 274 274 275 276 276 277 277 277 277 277 277 277 277 277 278 278 279 279 279 280 280 280 280 280
253 253 253 253 254 254 254 254 255 256 256 255 255 255 255 255 254 253 253 254 255 256 256 254 251 250 249 249 249 249 248 247 246 245 244 244 244 244 245 247 248 250 251 252 254 255 256 257 259 261 263 265 266 267 268 268 269 269 270 270 271 272 273 274 274 275 275 275 275 275 276 276 276 276 277 277 278 278 279 279 280 280 280 281 281
253 253 253 253 253 252 252 253 253 254 255 256 256 256 255 254 254 252 252 252 253 253 252 251 249 247 246 245 245 245 246 246 247 246 244 243 243 245 247 248 249 250 251 252 254 255 256 258 260 262 264 266 267 267 268 268 269 269 270 270 271 272 273 273 273 273 274 274 274 275 275 276 276 276 277 277 277 278 278 279 280 280 281 281 282
253 252 252 253 253 253 252 251 251 252 253 254 255 255 254 254 253 251 250 249 249 249 249 248 248 248 247 246 244 241 241 242 243 243 242 241 242 243 245 246 246 248 249 251 253 255 257 259 261 262 264 265 266 267 268 268 269 270 270 271 271 272 272 272 273 273 273 273 274 274 275 275 276 276 277 277 278 279 279 280 280 281 282 282 283
253 252 252 252 253 252 252 251 251 251 251 251 251 251 250 251 251 251 250 248 247 247 247 248 249 249 250 251 250 248 247 246 246 246 246 245 244 244 245 245 247 249 251 252 254 256 257 259 260 262 263 264 265 266 267 268 269 270 270 271 271 271 272 272 273 273 273 274 274 275 276 276 277 278 278 279 280 280 281 282 282 283 283 283 283
252 251 250 250 251 251 251 251 251 251 250 250 249 248 248 249 250 250 250 249 248 247 247 248 249 250 250 250 251 251 251 251 252 252 252 251 251 251 252 252 253 253 254 255 256 257 258 259 261 262 262 263 264 265 266 267 268 269 269 270 271 271 272 273 273 274 274 275 276 277 278 278 279 280 281 281 282 283 283 283 284 284 284 284 284
250 250 250 250 251 251 251 251 251 252 251 249 248 246 247 248 249 250 250 250 250 250 250 250 250 251 251 250 250 250 250 250 251 252 253 254 255 255 255 254 255 255 255 256 257 257 258 259 260 260 261 262 263 264 265 266 267 268 269 269 270 271 272 273 274 275 275 276 277 278 279 280 281 282 283 283 284 284 284 284 284 284 284 284 284
247 247 248 248 249 250 249 249 249 251 252 250 247 245 246 247 248 249 251 251 250 250 251 251 250 250 251 251 251 251 251 250 250 251 252 255 256 256 255 254 254 254 254 254 255 255 255 256 257 259 260 261 262 263 264 265 267 268 269 270 271 272 273 274 275 276 277 278 279 280 281 282 283 283 284 284 284 284 284 284 285 285 285 285 285
245 244 244 245 247 248 248 247 246 247 248 248 246 244 244 246 247 248 250 250 250 249 250 251 251 250 251 252 252 252 252 252 251 252 252 254 256 256 256 254 253 252 252 252 252 253 254 255 257 258 260 261 262 263 265 266 268 269 270 271 273 274 275 276 277 278 279 280 281 282 282 283 283 284 284 284 284 285 285 285 286 286 286 286 287
245 243 243 245 246 247 248 248 247 246 246 246 245 243 242 244 246 246 247 248 250 251 251 252 252 251 251 250 251 252 253 253 253 254 255 255 256 256 255 254 253 252 252 252 253 254 255 256 258 259 260 262 263 265 266 267 269 270 271 273 274 276 277 278 279 280 281 282 282 282 283 283 284 284 285 286 286 287 287 288 288 288 289 289 289
246 246 246 247 247 248 248 249 248 248 247 246 246 244 242 241 243 245 247 249 250 252 252 252 252 251 252 252 251 250 250 252 254 255 255 255 254 254 254 254 253 253 253 254 255 256 257 258 259 260 262 263 265 266 267 269 270 272 274 275 277 278 279 280 281 281 282 283 283 284 284 285 286 287 288 288 289 290 290 290 291 291 291 291 292
Height
5931 5932 5933 5934 5935 5937 5938 5939 5940 5940 5941 5941 5942 5943 5944 5944 5945 5946 5947 5948 5949 5950 5951 5951 5952 5952 5953 5954 5955 5955 5956 5957 5957 5958 5958 5959 5959 5959 5959 5960 5960 5960 5960 5960 5960 5960 5960 5960 5959 5959 5959 5959 5959 5959 5959 5959 5958 5958 5957 5957 5957 5956 5955 5955 5954 5954 5954 5953 5952 5952 5951 5951 5950 5949 5948 5947 5946 5946 5944 5943 5942 5941 5941 5940 5939
5929 5930 5931 5932 5934 5935 5936 5938 5939 5940 5941 5941 5942 5942 5943 5944 5945 5946 5946 5947 5948 5949 5950 5951 5951 5952 5952 5953 5954 5955 5955 5956 5956 5957 5957 5957 5958 5958 5958 5958 5959 5959 5959 5959 5959 5958 5958 5958 5958 5958 5958 5958 5958 5957 5957 5957 5957 5957 5957 5956 5956 5955 5954 5954 5953 5953 5953 5952 5951 5951 5950 5950 5949 5948 5948 5947 5946 5944 5943 5942 5941 5941 5940 5939 5938
5927 5928 5930 5931 5932 5933 5934 5936 5938 5939 5940 5941 5941 5942 5942 5943 5944 5945 5945 5946 5947 5948 5949 5949 5950 5951 5952 5952 5953 5954 5954 5955 5955 5955 5956 5956 5956 5956 5957 5957 5957 5957 5957 5957 5957 5957 5957 5957 5957 5957 5957 5956 5956 5956 5956 5956 5956 5956 5956 5956 5955 5955 5954 5953 5952 5952 5951 5951 5951 5950 5950 5949 5949 5948 5947 5946 5945 5944 5942 5941 5940 5939 5939 5938 5937
5924 5926 5927 5929 5930 5931 5932 5934 5936 5937 5938 5939 5940 5941 5941 5942 5943 5944 5944 5945 5946 5947 5948 5948 5949 5950 5950 5951 5952 5952 5953 5953 5954 5954 5954 5954 5955 5955 5955 5955 5955 5955 5955 5956 5956 5956 5956 5956 5956 5956 5956 5956 5955 5955 5955 5955 5955 5955 5955 5955 5954 5954 5953 5952 5951 5950 5950 5950 5949 5949 5949 5948 5948 5947 5946 5945 5944 5943 5942 5940 5939 5938 5938 5937 5936
5922 5923 5924 5926 5928 5929 5930 5932 5933 5935 5936 5937 5938 5939 5940 5941 5942 5942 5943 5944 5945 5946 5946 5947 5948 5948 5949 5950 5950 5951 5951 5952 5952 5952 5953 5953 5953 5953 5953 5953 5953 5954 5954 5954 5954 5954 5954 5955 5955 5955 5955 5954 5954 5954 5954 5954 5954 5954 5953 5953 5953 5953 5952 5951 5950 5950 5949 5948 5948 5948 5948 5947 5947 5946 5945 5944 5943 5942 5941 5940 5939 5937 5936 5936 5936
5920 5921 5922 5924 5925 5927 5928 5929 5931 5932 5933 5934 5936 5937 5938 5939 5940 5941 5941 5942 5943 5944 5944 5945 5946 5946 5947 5948 5948 5949 5950 5950 5950 5951 5951 5951 5951 5951 5952 5952 5952 5952 5952 5952 5952 5952 5953 5953 5953 5953 5953 5953 5953 5953 5953 5952 5952 5952 5952 5952 5951 5951 5951 5950 5950 5949 5948 5947 5947 5947 5946 5946 5945 5944 5944 5943 5942 5941 5940 5939 5937 5936 5936 5935 5935
5918 5919 5920 5922 5923 5925 5926 5927 5928 5929 5930 5932 5933 5935 5936 5937 5938 5939 5939 5940 5941 5942 5942 5943 5944 5944 5945 5945 5946 5947 5947 5948 5948 5948 5949 5949 5949 5950 5950 5950 5950 5950 5950 5951 5951 5951 5951 5952 5952 5952 5952 5952 5951 5951 5951 5951 5951 5950 5950 5950 5950 5949 5949 5948 5948 5947 5946 5945 5945 5944 5944 5944 5944 5943 5942 5941 5940 5939 5938 5936 5936 5935 5935 5935 5934
5917 5918 5919 5920 5922 5924 5925 5926 5926 5927 5928 5929 5931 5933 5934 5935 5936 5937 5938 5938 5939 5940 5941 5941 5942 5943 5943 5943 5944 5944 5945 5945 5945 5945 5946 5947 5947 5948 5948 5948 5949 5949 5949 5949 5949 5950 5950 5950 5950 5950 5950 5950 5949 5949 5949 5949 5949 5949 5948 5948 5948 5948 5947 5947 5946 5945 5944 5943 5942 5942 5942 5942 5942 5941 5941 5940 5938 5937 5936 5935 5934 5933 5933 5933 5933
5914 5916 5918 5920 5922 5923 5924 5924 5925 5925 5926 5928 5929 5930 5932 5933 5934 5935 5936 5937 5937 5938 5939 5940 5940 5941 5941 5942 5942 5943 5943 5943 5943 5944 5944 5944 5945 5945 5946 5946 5947 5947 5947 5948 5948 5948 5949 5949 5948 5948 5948 5947 5947 5947 5947 5947 5947 5947 5946 5946 5946 5946 5946 5945 5944 5943 5942 5941 5941 5941 5941 5941 5940 5940 5939 5938 5937 5936 5935 5934 5933 5932 5931 5931 5931
5912 5914 5917 5919 5920 5921 5922 5922 5922 5924 5925 5926 5926 5927 5928 5930 5931 5932 5933 5934 5935 5935 5936 5937 5938 5939 5939 5940 5940 5941 5942 5942 5942 5942 5942 5942 5943 5943 5943 5944 5944 5945 5945 5946 5946 5947 5947 5947 5946 5945 5945 5945 5945 5945 5945 5945 5945 5945 5944 5944 5944 5944 5944 5943 5942 5941 5941 5940 5940 5939 5939 5939 5938 5938 5937 5936 5936 5935 5934 5933 5932 5931 5930 5929 5929
5910 5913 5915 5916 5917 5918 5918 5919 5920 5921 5922 5923 5924 5925 5926 5927 5928 5929 5929 5930 5931 5932 5933 5934 5935 5936 5936 5937 5938 5939 5939 5939 5939 5940 5940 5940 5940 5941 5941 5941 5941 5942 5943 5944 5944 5944 5945 5944 5943 5943 5943 5943 5943 5942 5942 5942 5942 5942 5942 5942 5942 5942 5942 5941 5940 5940 5939 5938 5938 5938 5937 5937 5936 5936 5935 5934 5934 5933 5932 5931 5930 5930 5929 5928 5926
5908 5910 5911 5912 5914 5914 5914 5915 5916 5918 5919 5921 5922 5923 5924 5924 5925 5925 5925 5926 5927 5929 5930 5931 5931 5932 5933 5934 5934 5934 5935 5935 5936 5937 5937 5937 5938 5938 5939 5939 5940 5941 5942 5942 5941 5941 5942 5942 5941 5940 5940 5940 5940 5940 5939 5939 5940 5940 5940 5940 5940 5940 5939 5939 5939 5938 5937 5937 5936 5936 5936 5935 5934 5934 5933 5932 5932 5931 5930 5929 5929 5928 5927 5926 5925
5905 5906 5907 5908 5909 5910 5910 5911 5912 5914 5916 5917 5918 5919 5920 5921 5922 5922 5923 5924 5925 5926 5927 5928 5929 5930 5930 5931 5931 5930 5931 5932 5933 5933 5933 5934 5935 5935 5936 5937 5938 5939 5939 5939 5938 5938 5939 5939 5938 5938 5937 5937 5937 5937 5936 5936 5936 5936 5937 5937 5937 5937 5937 5937 5936 5935 5935 5935 5934 5934 5934 5933 5932 5932 5931 5930 5929 5929 5928 5927 5926 5926 5925 5924 5923
5900 5901 5902 5903 5904 5905 5906 5907 5909 5911 5913 5914 5915 5915 5916 5917 5918 5919 5919 5921 5923 5924 5924 5925 5926 5927 5927 5928 5928 5928 5928 5929 5930 5930 5930 5931 5931 5932 5934 5935 5935 5936 5935 5935 5935 5935 5935 5935 5935 5935 5934 5934 5934 5934 5933 5933 5933 5933 5933 5934 5935 5935 5935 5934 5933 5932 5932 5932 5932 5931 5931 5931 5930 5929 5928 5928 5927 5926 5925 5924 5923 5923 5922 5921 5920
5897 5898 5898 5900 5901 5902 5903 5904 5906 5908 5910 5911 5911 5912 5912 5913 5914 5915 5916 5917 5919 5920 5921 5921 5922 5923 5924 5924 5925 5925 5925 5926 5926 5927 5927 5928 5928 5929 5930 5930 5931 5932 5933 5933 5932 5932 5932 5932 5932 5932 5931 5931 5930 5930 5930 5930 5930 5930 5930 5931 5931 5932 5931 5931 5930 5930 5930 5930 5929 5928 5928 5928 5927 5926 5926 5925 5925 5924 5923 5922 5921 5920 5919 5918 5917
5892 5893 5894 5896 5897 5898 5899 5900 5902 5904 5905 5906 5906 5907 5908 5909 5910 5911 5912 5913 5914 5915 5916 5917 5918 5919 5920 5920 5921 5922 5922 5922 5922 5923 5924 5924 5925 5926 5927 5927 5927 5928 5929 5929 5929 5928 5928 5928 5928 5928 5927 5927 5927 5927 5927 5926 5926 5926 5926 5927 5928 5928 5927 5927 5927 5927 5927 5927 5926 5926 5925 5925 5924 5924 5923 5922 5921 5921 5920 5919 5918 5917 5916 5915 5914
5887 5889 5890 5891 5892 5894 5895 5897 5898 5899 5900 5900 5900 5901 5904 5906 5907 5908 5909 5910 5910 5911 5912 5913 5913 5914 5915 5916 5917 5918 5918 5918 5918 5919 5920 5920 5921 5922 5923 5924 5924 5924 5925 5925 5925 5925 5925 5924 5923 5923 5923 5923 5923 5923 5923 5923 5923 5922 5922 5923 5923 5924 5924 5923 5924 5924 5924 5923 5923 5922 5922 5922 5921 5921 5920 5919 5919 5918 5917 5915 5915 5914 5913 5911 5910
5882 5883 5885 5886 5888 5890 5892 5893 5894 5895 5895 5894 5896 5898 5901 5903 5904 5905 5906 5907 5906 5907 5908 5909 5910 5910 5911 5912 5913 5913 5914 5914 5915 5915 5916 5916 5917 5918 5919 5919 5920 5920 5921 5921 5921 5921 5921 5920 5919 5919 5918 5918 5919 5919 5919 5919 5919 5919 5919 5919 5919 5920 5920 5920 5920 5920 5920 5920 5920 5919 5919 5919 5918 5917 5917 5916 5916 5914 5913 5912 5912 5911 5910 5909 5908
5878 5879 5880 5882 5884 5886 5888 5889 5890 5890 5890 5892 5894 5896 5898 5900 5900 5901 5901 5902 5903 5903 5904 5906 5906 5907 5908 5908 5909 5909 5910 5911 5911 5911 5912 5913 5914 5914 5915 5915 5916 5916 5917 5917 5917 5917 5916 5915 5915 5915 5915 5914 5914 5915 5915 5915 5915 5915 5915 5915 5915 5915 5915 5916 5916 5916 5916 5916 5916 5915 5915 5915 5915 5914 5913 5912 5911 5911 5910 5909 5909 5908 5907 5906 5905
5876 5877 5878 5879 5880 5881 5883 5885 5886 5886 5887 5889 5891 5892 5894 5895 5895 5895 5897 5899 5900 5900 5901 5902 5903 5904 5904 5904 5905 5905 5906 5907 5908 5908 5909 5909 5910 5910 5911 5911 5912 5912 5912 5912 5912 5912 5912 5911 5910 5910 5910 5910 5910 5910 5910 5910 5911 5911 5911 5911 5911 5911 5911 5911 5911 5912 5912 5913 5912 5912 5911 5912 5912 5911 5909 5908 5907 5907 5906 5906 5905 5904 5903 5902 5902
5873 5874 5875 5875 5876 5877 5879 5881 5882 5883 5882 5884 5886 5888 5890 5892 5892 5892 5894 5896 5897 5897 5898 5898 5899 5899 5900 5901 5901 5902 5902 5903 5903 5904 5905 5905 5906 5906 5906 5906 5907 5907 5907 5908 5907 5907 5907 5906 5905 5905 5905 5905 5905 5905 5905 5906 5906 5907 5907 5907 5907 5907 5907 5907 5907 5907 5908 5908 5908 5908 5908 5908 5908 5907 5905 5904 5903 5902 5901 5900 5900 5899 5899 5898 5898
5868 5868 5869 5871 5872 5873 5875 5877 5878 5878 5878 5880 5883 5886 5887 5889 5889 5890 5891 5892 5893 5893 5893 5894 5894 5895 5896 5897 5897 5898 5898 5899 5899 5899 5901 5902 5902 5902 5902 5902 5902 5902 5902 5903 5903 5902 5902 5901 5900 5900 5900 5900 5901 5901 5901 5902 5902 5902 5903 5903 5903 5903 5903 5903 5903 5904 5904 5903 5903 5903 5903 5903 5903 5902 5901 5899 5898 5897 5896 5895 5894 5894 5894 5894 5894
5863 5864 5865 5867 5868 5869 5872 5873 5874 5875 5876 5878 5880 5882 5884 5885 5885 5886 5887 5888 5888 5889 5889 5890 5891 5891 5891 5892 5893 5894 5894 5894 5895 5895 5897 5898 5898 5898 5898 5898 5898 5898 5897 5898 5898 5898 5898 5897 5896 5895 5895 5895 5896 5897 5898 5898 5898 5898 5898 5899 5899 5898 5898 5898 5899 5899 5899 5899 5898 5898 5898 5898 5898 5897 5896 5895 5894 5893 5892 5891 5890 5889 5890 5890 5890
5859 5861 5862 5863 5864 5866 5867 5869 5870 5871 5873 5875 5877 5879 5881 5882 5882 5883 5884 5885 5886 5885 5885 5886 5887 5887 5887 5888 5889 5891 5891 5891 5891 5892 5892 5893 5894 5894 5895 5894 5894 5894 5894 5894 5894 5894 5893 5893 5893 5892 5891 5891 5891 5892 5894 5894 5894 5893 5894 5894 5894 5894 5893 5893 5893 5894 5894 5894 5894 5893 5893 5893 5893 5893 5892 5891 5890 5889 5888 5887 5886 5885 5885 5886 5885
5855 5856 5857 5859 5861 5862 5863 5864 5865 5866 5867 5869 5872 5874 5877 5878 5880 5880 5881 5882 5882 5880 5880 5882 5883 5883 5883 5884 5885 5886 5887 5887 5887 5887 5888 5889 5890 5891 5892 5890 5889 5890 5891 5890 5890 5890 5889 5889 5889 5889 5888 5887 5887 5888 5889 5890 5889 5889 5889 5889 5889 5889 5888 5888 5889 5889 5889 5889 5889 5889 5888 5888 5888 5888 5888 5887 5886 5885 5884 5883 5882 5881 5881 5881 5880
5850 5852 5854 5856 5857 5858 5859 5860 5861 5862 5863 5865 5867 5870 5872 5874 5875 5876 5876 5877 5876 5875 5875 5878 5880 5879 5880 5880 5880 5880 5881 5882 5882 5883 5884 5884 5885 5887 5888 5887 5886 5887 5888 5886 5885 5886 5886 5885 5886 5885 5884 5884 5884 5884 5885 5885 5885 5884 5884 5884 5884 5884 5884 5884 5885 5885 5885 5885 5885 5885 5884 5884 5885 5884 5884 5883 5882 5881 5880 5879 5878 5877 5876 5876 5876
5846 5847 5849 5851 5853 5854 5855 5856 5857 5858 5860 5861 5863 5864 5867 5868 5870 5871 5871 5870 5870 5871 5871 5873 5874 5875 5875 5875 5874 5875 5876 5877 5878 5879 5879 5880 5881 5882 5883 5883 5883 5884 5883 5881 5881 5882 5883 5883 5882 5881 5880 5880 5880 5880 5880 5881 5881 5881 5881 5881 5880 5880 5880 5881 5881 5881 5881 5881 5881 5880 5880 5880 5880 5880 5880 5879 5878 5877 5876 5875 5874 5873 5872 5871 5871
5841 5842 5843 5845 5847 5849 5851 5852 5853 5854 5855 5856 5857 5858 5860 5862 5864 5867 5867 5866 5866 5868 5868 5868 5869 5869 5870 5869 5870 5870 5871 5872 5873 5874 5875 5875 5876 5877 5878 5879 5879 5879 5878 5877 5878 5879 5879 5879 5877 5876 5876 5877 5877 5876 5877 5877 5878 5878 5878 5877 5877 5876 5877 5877 5878 5878 5877 5877 5877 5877 5876 5876 5876 5875 5875 5874 5873 5872 5871 5870 5869 5868 5867 5866 5866
5837 5837 5838 5839 5841 5843 5844 5846 5847 5849 5850 5851 5851 5852 5853 5855 5857 5860 5862 5862 5863 5863 5863 5864 5864 5864 5864 5865 5865 5865 5866 5867 5867 5868 5869 5869 5870 5871 5872 5873 5874 5874 5874 5874 5874 5874 5874 5874 5873 5873 5873 5874 5874 5874 5874 5874 5874 5875 5874 5874 5873 5873 5873 5873 5874 5874 5873 5873 5873 5872 5872 5871 5871 5870 5869 5869 5868 5867 5866 5865 5864 5863 5862 5862 5861
5830 5831 5832 5833 5835 5836 5837 5839 5840 5842 5844 5845 5845 5846 5847 5848 5850 5852 5854 5856 5857 5858 5859 5859 5860 5859 5860 5860 5861 5860 5861 5861 5862 5863 5864 5864 5865 5866 5867 5868 5868 5869 5869 5869 5869 5870 5870 5870 5870 5870 5870 5870 5871 5871 5871 5871 5871 5871 5870 5870 5869 5869 5869 5869 5869 5869 5869 5868 5868 5867 5866 5865 5865 5864 5863 5862 5862 5861 5861 5860 5859 5859 5858 5857 5856
5823 5824 5825 5826 5828 5829 5831 5832 5833 5835 5836 5838 5839 5840 5841 5842 5843 5845 5847 5849 5850 5851 5853 5854 5854 5854 5854 5855 5856 5855 5855 5855 5856 5857 5859 5860 5861 5862 5862 5863 5863 5864 5864 5864 5864 5865 5865 5865 5866 5866 5866 5866 5867 5867 5867 5867 5866 5866 5866 5866 5865 5865 5864 5864 5864 5864 5863 5863 5863 5862 5861 5860 5859 5858 5857 5856 5856 5855 5855 5854 5854 5853 5853 5852 5851
5817 5818 5818 5819 5820 5822 5824 5825 5827 5828 5829 5831 5832 5833 5834 5835 5837 5838 5840 5842 5843 5844 5845 5846 5848 5848 5849 5850 5850 5850 5849 5850 5851 5852 5854 5856 5857 5857 5857 5858 5859 5859 5860 5860 5860 5860 5861 5861 5861 5861 5861 5862 5862 5862 5863 5862 5862 5862 5862 5861 5860 5860 5859 5858 5858 5858 5857 5857 5857 5856 5855 5854 5853 5852 5851 5850 5850 5849 5848 5848 5847 5847 5846 5845 5843
5811 5811 5812 5813 5814 5815 5816 5818 5819 5821 5822 5824 5826 5827 5828 5829 5830 5831 5833 5834 5836 5837 5838 5840 5841 5842 5843 5844 5844 5844 5844 5845 5847 5848 5850 5852 5852 5853 5853 5854 5854 5855 5855 5855 5856 5856 5856 5856 5856 5856 5856 5856 5857 5857 5857 5857 5857 5857 5856 5856 5855 5854 5853 5853 5852 5852 5851 5851 5851 5850 5849 5848 5847 5846 5845 5844 5844 5843 5841 5840 5840 5839 5838 5836 5835
5804 5805 5806 5806 5807 5808 5809 5811 5812 5813 5815 5816 5818 5820 5821 5822 5823 5824 5826 5827 5829 5831 5832 5834 5835 5836 5837 5837 5838 5838 5839 5841 5842 5844 5846 5847 5848 5848 5849 5849 5849 5850 5850 5850 5851 5851 5851 5851 5851 5851 5851 5851 5851 5851 5851 5851 5851 5851 5851 5849 5848 5848 5847 5847 5846 5846 5846 5845 5844 5844 5843 5842 5841 5840 5839 5838 5837 5836 5835 5833 5832 5831 5830 5829 5827
5796 5798 5799 5799 5800 5801 5802 5804 5805 5806 5807 5809 5811 5813 5814 5815 5816 5818 5819 5820 5822 5824 5826 5828 5830 5830 5830 5831 5832 5833 5834 5835 5837 5838 5840 5841 5842 5843 5843 5843 5844 5844 5845 5845 5845 5845 5845 5845 5845 5845 5846 5846 5846 5846 5845 5845 5845 5845 5844 5843 5842 5841 5841 5840 5840 5840 5839 5839 5838 5837 5836 5835 5834 5833 5833 5831 5830 5829 5827 5826 5825 5824 5822 5821 5820
5788 5790 5791 5792 5793 5794 5795 5797 5798 5799 5800 5801 5803 5805 5807 5809 5810 5811 5812 5814 5816 5817 5819 5821 5823 5824 5824 5825 5825 5826 5828 5829 5831 5832 5833 5835 5836 5837 5837 5838 5838 5838 5838 5838 5839 5839 5839 5840 5840 5840 5840 5840 5840 5840 5839 5839 5839 5838 5838 5837 5836 5835 5835 5834 5834 5833 5832 5832 5831 5830 5829 5828 5827 5826 5825 5824 5823 5821 5820 5818 5817 5815 5814 5813 5812
5780 5782 5783 5784 5786 5787 5788 5790 5791 5792 5793 5794 5796 5798 5800 5802 5804 5805 5806 5808 5809 5811 5812 5814 5816 5817 5818 5818 5819 5820 5821 5823 5825 5827 5828 5829 5830 5831 5831 5831 5831 5831 5832 5832 5833 5833 5834 5834 5834 5834 5834 5834 5834 5833 5833 5833 5832 5832 5831 5831 5830 5829 5828 5827 5827 5826 5825 5825 5824 5822 5821 5820 5819 5818 5817 5816 5815 5813 5812 5810 5809 5807 5806 5805 5803
5773 5774 5775 5777 5778 5779 5780 5782 5783 5785 5786 5788 5789 5790 5792 5795 5797 5798 5799 5800 5802 5804 5805 5806 5808 5810 5811 5812 5813 5814 5815 5817 5819 5821 5822 5822 5823 5824 5824 5824 5824 5824 5825 5826 5827 5827 5827 5827 5827 5827 5827 5827 5827 5826 5826 5826 5825 5825 5824 5824 5823 5822 5821 5820 5820 5819 5818 5817 5816 5815 5814 5813 5812 5810 5809 5808 5807 5805 5804 5802 5801 5799 5798 5796 5795
5766 5767 5768 5769 5770 5771 5772 5774 5775 5777 5778 5780 5782 5783 5785 5787 5789 5791 5792 5794 5795 5796 5797 5798 5800 5802 5803 5805 5806 5808 5809 5810 5812 5814 5815 5815 5816 5817 5817 5817 5817 5818 5819 5820 5820 5820 5820 5820 5820 5820 5820 5820 5820 5820 5819 5819 5818 5818 5817 5816 5815 5815 5814 5813 5812 5811 5810 5810 5809 5808 5807 5805 5804 5803 5801 5800 5799 5797 5796 5794 5793 5792 5790 5788 5787
5758 5760 5761 5762 5762 5763 5764 5766 5767 5768 5770 5772 5774 5776 5778 5780 5782 5785 5787 5788 5789 5789 5790 5790 5791 5793 5795 5797 5799 5801 5802 5804 5805 5807 5808 5808 5809 5810 5810 5810 5810 5811 5812 5812 5812 5812 5813 5813 5814 5814 5813 5813 5813 5812 5812 5811 5811 5810 5809 5809 5808 5808 5807 5807 5806 5804 5803 5802 5801 5800 5799 5798 5796 5795 5793 5792 5791 5789 5788 5786 5785 5783 5782 5780 5778
5751 5753 5754 5754 5755 5756 5757 5758 5759 5760 5762 5764 5766 5768 5770 5772 5774 5778 5780 5781 5782 5783 5783 5783 5784 5785 5787 5790 5791 5793 5794 5796 5798 5799 5799 5800 5801 5802 5802 5803 5803 5804 5804 5804 5805 5805 5806 5806 5806 5806 5806 5805 5805 5805 5804 5804 5803 5802 5802 5801 5801 5801 5800 5799 5798 5797 5796 5794 5793 5792 5791 5790 5789 5787 5786 5784 5783 5781 5779 5778 5776 5774 5773 5771 5769
5744 5746 5747 5747 5748 5749 5750 5751 5752 5753 5755 5757 5759 5761 5762 5764 5766 5769 5772 5774 5775 5776 5777 5777 5777 5778 5779 5782 5784 5786 5787 5789 5791 5791 5791 5791 5792 5793 5793 5794 5795 5796 5796 5797 5798 5798 5798 5798 5798 5798 5798 5798 5797 5797 5796 5796 5795 5795 5794 5794 5794 5793 5792 5791 5790 5789 5788 5787 5785 5784 5783 5782 5781 5779 5778 5776 5774 5773 5771 5769 5767 5765 5763 5762 5760
5738 5738 5739 5740 5741 5742 5743 5744 5745 5746 5748 5750 5752 5754 5755 5756 5758 5761 5764 5766 5768 5770 5771 5771 5771 5771 5771 5773 5777 5779 5780 5782 5783 5783 5782 5782 5782 5783 5784 5786 5788 5789 5789 5790 5791 5791 5791 5791 5791 5791 5790 5790 5789 5788 5788 5787 5787 5787 5786 5786 5786 5785 5784 5783 5782 5781 5780 5779 5777 5776 5774 5773 5772 5771 5769 5768 5766 5764 5762 5760 5758 5757 5755 5753 5751
5730 5731 5732 5733 5734 5736 5737 5738 5738 5740 5741 5743 5745 5746 5747 5749 5750 5753 5755 5757 5760 5762 5764 5764 5765 5765 5765 5766 5769 5772 5773 5773 5774 5774 5773 5773 5773 5774 5776 5778 5780 5780 5781 5782 5782 5783 5783 5783 5783 5783 5783 5782 5782 5781 5780 5779 5778 5778 5778 5778 5777 5777 5776 5775 5774 5773 5772 5771 5769 5767 5766 5765 5763 5762 5760 5759 5757 5755 5753 5752 5750 5748 5746 5744 5741
5723 5724 5726 5727 5727 5728 5730 5731 5732 5733 5735 5737 5738 5739 5740 5741 5743 5745 5747 5750 5752 5754 5756 5758 5758 5759 5759 5759 5761 5763 5764 5765 5765 5765 5765 5765 5766 5766 5768 5770 5771 5772 5772 5773 5773 5774 5775 5775 5775 5775 5775 5774 5774 5773 5772 5771 5770 5770 5770 5770 5769 5768 5768 5767 5766 5765 5764 5762 5761 5759 5758 5756 5755 5753 5751 5750 5748 5746 5744 5742 5740 5738 5736 5734 5731
5717 5718 5719 5720 5720 5721 5723 5724 5726 5727 5729 5731 5732 5733 5734 5735 5736 5738 5740 5743 5745 5747 5749 5751 5751 5752 5752 5752 5753 5754 5755 5756 5757 5757 5758 5758 5758 5759 5761 5762 5763 5763 5764 5765 5765 5766 5767 5767 5767 5767 5767 5766 5766 5765 5764 5763 5763 5763 5762 5761 5761 5760 5759 5758 5757 5756 5755 5754 5752 5750 5749 5747 5746 5744 5742 5741 5739 5737 5735 5733 5730 5728 5726 5723 5721
5710 5711 5712 5712 5713 5714 5716 5717 5719 5721 5722 5724 5726 5727 5728 5729 5729 5730 5733 5736 5738 5740 5741 5742 5743 5744 5744 5744 5745 5746 5747 5748 5749 5750 5750 5751 5752 5752 5753 5754 5754 5755 5756 5757 5758 5758 5759 5759 5759 5759 5759 5759 5758 5757 5756 5755 5755 5755 5754 5754 5753 5752 5751 5750 5749 5748 5747 5745 5744 5742 5740 5738 5737 5735 5733 5731 5729 5727 5725 5723 5720 5718 5715 5713 5710
5704 5705 5705 5705 5706 5708 5709 5711 5712 5714 5716 5717 5719 5721 5722 5723 5724 5725 5726 5729 5731 5733 5733 5734 5735 5735 5736 5736 5738 5739 5741 5742 5742 5743 5743 5743 5744 5744 5745 5746 5746 5747 5748 5749 5749 5750 5750 5751 5751 5751 5751 5751 5750 5749 5748 5748 5748 5747 5747 5746 5745 5744 5743 5742 5741 5740 5738 5737 5735 5733 5731 5729 5728 5726 5724 5722 5720 5717 5715 5713 5710 5707 5705 5702 5699
5697 5698 5699 5699 5700 5701 5703 5704 5706 5707 5709 5711 5713 5715 5716 5718 5719 5720 5722 5723 5724 5726 5727 5727 5727 5728 5728 5729 5730 5733 5734 5736 5736 5736 5737 5737 5736 5736 5737 5738 5739 5740 5740 5741 5741 5742 5742 5743 5743 5743 5743 5743 5742 5741 5741 5741 5740 5739 5739 5738 5737 5736 5735 5734 5733 5731 5730 5728 5727 5725 5723 5721 5719 5717 5715 5712 5710 5708 5705 5703 5700 5697 5695 5692 5689
5690 5691 5693 5694 5694 5695 5696 5697 5699 5701 5702 5705 5707 5708 5710 5712 5714 5715 5716 5716 5717 5719 5720 5720 5720 5721 5721 5722 5724 5726 5727 5728 5729 5730 5730 5730 5730 5729 5729 5730 5731 5732 5733 5733 5734 5735 5736 5736 5736 5736 5736 5735 5734 5733 5733 5733 5733 5732 5731 5730 5729 5728 5727 5725 5724 5723 5721 5720 5718 5716 5714 5712 5710 5708 5705 5703 5700 5698 5695 5693 5690 5687 5684 5681 5678
5683 5684 5686 5687 5689 5690 5690 5691 5692 5694 5695 5698 5700 5702 5704 5706 5707 5709 5710 5711 5712 5713 5713 5714 5714 5714 5715 5716 5718 5720 5721 5722 5723 5724 5724 5724 5723 5723 5723 5724 5725 5726 5726 5727 5727 5728 5729 5729 5729 5729 5729 5728 5726 5726 5726 5726 5725 5724 5723 5722 5721 5720 5718 5717 5716 5714 5712 5711 5709 5707 5705 5703 5700 5698 5696 5693 5691 5688 5685 5683 5680 5677 5674 5671 5667